Weather History for KINL - August, 2013

Change the Weather History Date:

Wednesday, August 21, 2013

  Actual Average Record
Temperature  
Mean Temperature 66 °F 63 °F  
Max Temperature 78 °F 75 °F 87 °F (1971)
Min Temperature 53 °F 50 °F 32 °F (2004)
Degree Days  
Heating Degree Days 0 4  
Month to date heating degree days 124 60  
Since 1 June heating degree days 378 294  
Since 1 July heating degree days 209 130  
Cooling Degree Days 1 2  
Month to date cooling degree days 32 42  
Year to date cooling degree days 159 165  
Since 1 June cooling degree days 156 156  
Growing Degree Days 16 (Base 50)    
Moisture  
Dew Point 58 °F    
Average Humidity 65    
Maximum Humidity 93    
Minimum Humidity 36    
Precipitation  
Precipitation 0.00 in 0.09 in 1.81 in (1996)
Month to date precipitation 2.12 1.90  
Year to date precipitation 23.50 16.05  
Snow  
Snow 0.00 in 0.00 in T in (1996)
Month to date snowfall 0.0 0.0  
Since 1 June snowfall 0.0 0.0  
Since 1 July snowfall 0.0 0.0  
Snow Depth 0.00 in    
Sea Level Pressure  
Sea Level Pressure 29.88 in    
Wind  
Wind Speed 8 mph (WNW)    
Max Wind Speed 20 mph    
Max Gust Speed 25 mph    
Visibility 10 miles    
Events      
T = Trace of Precipitation, MM = Missing Value Source: NWS Daily Summary

Daily Weather History Graph

Daily Weather History Graph

Search for Another Location

Airport or City:

Trip Planner

Search our weather history database for the weather conditions in past years. The results will help you decide how hot, cold, wet, or windy it might be!

Date:

Astronomy

Aug. 21, 2013 Rise Set
Actual Time 6:15 AM CDT 8:16 PM CDT
Civil Twilight 5:41 AM CDT 8:50 PM CDT
Nautical Twilight 5:00 AM CDT 9:31 PM CDT
Astronomical Twilight 4:13 AM CDT 10:18 PM CDT
Moon 8:14 PM CDT (8/21) 7:04 AM CDT (8/21)
Length of Visible Light 15h 08m
Length of Day
14h 00m
Waxing Gibbous, 99% of the Moon is Illuminated
Aug 21
Waxing Gibbous
Aug 28
Last Quarter
Sep 5
New
Sep 12
First Quarter
Sep 19
Full

Hourly Weather History & Observations

Time (CDT) Temp. Dew Point Humidity Pressure Visibility Wind Dir Wind Speed Gust Speed Precip Events Conditions
12:55 AM 77.0 °F 69.1 °F 76% 29.70 in 10.0 mi Variable 6.9 mph - N/A   Clear
1:55 AM 77.0 °F 70.0 °F 79% 29.70 in 10.0 mi SSW 9.2 mph 19.6 mph N/A   Clear
2:55 AM 75.9 °F 70.0 °F 82% 29.69 in 10.0 mi SW 11.5 mph 18.4 mph N/A   Scattered Clouds
3:55 AM 75.0 °F 70.0 °F 84% 29.73 in 10.0 mi WSW 10.4 mph - N/A   Clear
4:23 AM 75.2 °F 69.8 °F 83% 29.75 in 10.0 mi West 12.7 mph 20.7 mph N/A   Mostly Cloudy
4:34 AM 73.4 °F 69.8 °F 88% 29.75 in 10.0 mi WNW 11.5 mph - N/A   Mostly Cloudy
4:55 AM 69.1 °F 66.0 °F 90% 29.75 in 10.0 mi NW 15.0 mph - N/A   Mostly Cloudy
5:13 AM 68.0 °F 64.4 °F 88% 29.77 in 10.0 mi NW 11.5 mph - N/A   Scattered Clouds
5:55 AM 64.9 °F 62.1 °F 90% 29.80 in 10.0 mi NW 6.9 mph - N/A   Clear
6:55 AM 62.1 °F 59.0 °F 90% 29.85 in 10.0 mi WNW 3.5 mph - N/A   Clear
7:55 AM 64.9 °F 60.1 °F 84% 29.87 in 10.0 mi WNW 6.9 mph - N/A   Clear
8:55 AM 68.0 °F 59.0 °F 73% 29.89 in 10.0 mi WNW 6.9 mph - N/A   Clear
9:55 AM 72.0 °F 59.0 °F 64% 29.90 in 10.0 mi NW 6.9 mph - N/A   Clear
10:55 AM 73.9 °F 57.9 °F 57% 29.92 in 10.0 mi WNW 6.9 mph - N/A   Clear
11:55 AM 75.9 °F 57.0 °F 52% 29.94 in 10.0 mi WNW 9.2 mph - N/A   Clear
12:55 PM 77.0 °F 51.1 °F 40% 29.95 in 10.0 mi WNW 11.5 mph - N/A   Clear
1:55 PM 77.0 °F 48.0 °F 36% 29.96 in 10.0 mi WNW 17.3 mph 25.3 mph N/A   Clear
2:55 PM 77.0 °F 48.9 °F 37% 29.96 in 10.0 mi WNW 12.7 mph 24.2 mph N/A   Clear
3:55 PM 77.0 °F 51.1 °F 40% 29.96 in 10.0 mi West 8.1 mph 17.3 mph N/A   Clear
4:55 PM 77.0 °F 48.0 °F 36% 29.96 in 10.0 mi WSW 12.7 mph 18.4 mph N/A   Clear
5:55 PM 75.0 °F 46.0 °F 36% 29.97 in 10.0 mi WNW 9.2 mph - N/A   Clear
6:55 PM 72.0 °F 48.0 °F 43% 29.97 in 10.0 mi WNW 6.9 mph - N/A   Clear
7:55 PM 66.9 °F 51.1 °F 57% 29.99 in 10.0 mi West 3.5 mph - N/A   Clear
8:55 PM 55.0 °F 52.0 °F 89% 30.02 in 10.0 mi Calm Calm - N/A   Clear
9:55 PM 54.0 °F 50.0 °F 86% 30.04 in 10.0 mi WSW 3.5 mph - N/A   Clear
10:55 PM 57.9 °F 50.0 °F 75% 30.06 in 10.0 mi West 4.6 mph - N/A   Clear
11:55 PM 55.0 °F 48.9 °F 80% 30.07 in 10.0 mi Calm Calm - N/A   Clear